sat.trackr.live / text

‹ back to catalog

STARLINK-31821

NORAD 59737 · 2024-090H

PAYLOAD ACTIVE UNKNOWN

§ Identity

Operator
Country
US
Launch date
2024-05-13
Launch site
AFETR
Launch vehicle
Mass (kg)
RCS (m²)

Purposes: comms

External: N2YO · Heavens-Above · Gunter

§ Orbital elements

Epoch: 2026-05-24T23:01:32.255904Z

Period
94.27 min
Inclination
43.0033°
Eccentricity
0.0001177
Mean motion
15.27581624 rev/d
Perigee alt
482.2 km
Apogee alt
483.9 km
Semi-major
6,861.2 km
B*
5.6029e-5
RAAN
112.8502°
Arg perigee
272.6277°
Mean anomaly
87.4440°
Rev number
11,510

§ Raw data

STARLINK-318211 59737U 24090H   26144.95940111  .00001280  00000+0  56029-4 0  99992 59737  43.0033 112.8502 0001177 272.6277  87.4440 15.27581624115100

JSON: /api/v1/satellites/59737 · /tle

For live sub-satellite position, see the globe view (requires WebGL).

§ Visibility from observer

Set your observer location to see the next 7 days of passes ≥ 10°. The values pass through the URL so the page stays shareable.

No JS? Fill the form by hand. The geolocation button needs JavaScript.